Regional Weather Roundup
Issued by NWS

Home | Current Version | Previous Version | Text Only | Print | Product List | Glossary Off
Versions: 1 2 3 4 5 6 7 8 9 10 11 12 13 14 15 16 17 18 19 20 21 22 23 24 25 26 27

000
ASUS45 KSLC 252210
RWRUT

UTAH REGIONAL WEATHER ROUNDUP
NATIONAL WEATHER SERVICE SALT LAKE CITY UT
400 PM MDT SUN JUN 25 2017

UTZ001>011-023>025-252300-

NORTHERN UTAH

CITY           SKY/WX    TMP DP  RH WIND       PRES   REMARKS
BRIGHAM CITY   SUNNY     90  29  11 NW6       30.15F
HILL AFB       SUNNY     88  45  22 W14       30.19F
LOGAN          SUNNY     89  39  17 VRB3      30.17F
OGDEN          SUNNY     89  40  17 NW8       30.16F
SALT LAKE CITY MOSUNNY   92  36  14 CALM      30.13F
TOOELE VALLEY  SUNNY     88  45  22 N12       30.15F
WENDOVER         N/A     91  31  11 E9        30.14F
HEBER CITY     SUNNY     88  30  12 NW5       30.22F
WEST JORDAN    SUNNY     89  51  27 N7        30.17F

$$

UTZ011>015-024>027-252300-

CENTRAL/NORTHEAST UTAH

CITY           SKY/WX    TMP DP  RH WIND       PRES   REMARKS
PROVO AIRPORT  SUNNY     90  27  10 N5        30.16F
MOAB/CANYONLAN SUNNY     97   5   3 W13G23    30.08F
DELTA          SUNNY     90  19   7 W7        30.16F
PRICE          SUNNY     91  21   8 E10       30.21F
RICHFIELD        N/A     91  27   9 W13G18    30.18F
VERNAL         SUNNY     88  36  15 VRB6      30.20F

$$

UTZ013>016-019>022-027-252300-

SOUTHERN UTAH

CITY           SKY/WX    TMP DP  RH WIND       PRES   REMARKS
BRYCE CANYON   CLOUDY    82  28  14 W16G23    30.38F
CEDAR CITY     PTSUNNY   91  25   9 NW6       30.20F
MILFORD        MOSUNNY   97  18   6 N9        30.14F HX  90
ST GEORGE      CLEAR    104  30   7 N6        29.95F HX  97
HANKSVILLE     SUNNY     99  23   6 CALM      30.09F HX  92
KANAB          SUNNY     95  28   9 W3        30.15F
BLANDING       MOSUNNY   90  28  10 SW6G17    30.25F

$$

REGIONAL REPORTS     COLORADO/ARIZONA

CITY           SKY/WX    TMP DP  RH WIND       PRES   REMARKS
CRAIG, CO      SUNNY     84  22  10 VRB5      30.29F
GRAND JUNCTION SUNNY     94  24   8 W15G21    30.11F
RIFLE, CO      SUNNY     92  22   8 NW14      30.18F
MONTROSE, CO   SUNNY     90  28  11 N8        30.19F
CORTEZ, CO     SUNNY     94  24   8 W15G23    30.19F
COLORADO CITY    N/A     99  32   9 NW7G23    30.16F HX  93
PAGE, AZ       NOT AVBL
GRAND CANYON   LGT RAIN  75  41  29 VRB7G30   30.36R
KINGMAN, AZ    MOSUNNY  107  37   9 SW17G25   29.99F HX 101
FLAGSTAFF, AZ  TSTM      60  50  69 N14G36    30.41R

$$

REGIONAL REPORTS    NEVADA/IDAHO/WYOMING

CITY           SKY/WX    TMP DP  RH WIND       PRES   REMARKS
LAS VEGAS, NV  MOSUNNY  112  13   3 NE7       29.86F HX 102
ELY, NY        MOSUNNY   91  36  14 VRB5      30.23F
ELKO, NV       SUNNY     92  16   6 VRB3      30.15F
POCATELLO, ID  MOSUNNY   88  45  22 NW9       30.19F
BURLEY, ID     SUNNY     88  42  20 NE8       30.13F
FORT BRIDGER,    N/A     80  24  13 CALM      30.40F
EVANSTON, WY   SUNNY     79  31  17 VRB5      30.37F
ROCK SPRINGS,  SUNNY     77  23  13 VRB5      30.35F
KEMMERER, WY     N/A     75  27  16 W6        30.40S

$$




USA.gov is the U.S. government's official web portal to all federal, state and local government web resources and services.